Вернуться в каталог

COSMOS 2251 DEB

АктивенLEO
NORAD 33764·DEBRIS·🇷🇺 Russia

Запущен Jun 16, 1993 с Plesetsk Cosmodrome

Loading…

Ближайшие Пролёты (ближайшие 24 часа)

TLE

СвежийSource: Space-Track

Эпоха: Sep 14, 2026, 10:00 UTC

1 33764U 93036M   26257.41727787  .00000489  00000-0  16318-3 0  9992
2 33764  74.0323 123.3864 0021588  18.7434 155.1826 14.39970816921246

Отслеживайте COSMOS 2251 DEB в реальном времени с AllMySat

Download on the App Store